FW8315 Weather Reports


time (UTC)temp
C
wind
direction
speed
KPH
gust
KPH
rain 1hr
cm
rain 24hr
cm
rain mn
cm
humidity
%
barometer
mb
20260507154019 15 156 12.9 24.1 0.00 0.00 0.00 67 1016.2
20260507153024 15 155 12.9 24.1 0.00 0.00 0.00 66 1016.3
20260507152030 16 145 14.5 25.7 0.00 0.00 0.00 63 1016.4
20260507151018 17 137 14.5 27.4 0.00 0.00 0.00 60 1016.5
20260507150022 18 127 14.5 29.0 0.00 0.00 0.00 60 1016.5
20260507145028 18 150 16.1 30.6 0.00 0.00 0.00 59 1016.5
20260507144032 18 128 16.1 29.0 0.00 0.00 0.00 59 1016.7
20260507143019 19 146 14.5 27.4 0.00 0.00 0.00 58 1016.8
20260507142025 18 168 12.9 27.4 0.00 0.00 0.00 61 1016.8
20260507141029 18 170 12.9 24.1 0.00 0.00 0.00 61 1016.7
20260507140017 17 151 14.5 29.0 0.00 0.00 0.00 62 1016.8
20260507135024 18 154 11.3 22.5 0.00 0.00 0.00 61 1016.8
20260507134027 18 168 11.3 24.1 0.00 0.00 0.00 60 1016.9
20260507133032 18 155 12.9 29.0 0.00 0.00 0.00 60 1016.8
20260507132020 18 151 12.9 25.7 0.00 0.00 0.00 61 1017.0
20260507131025 18 144 12.9 24.1 0.00 0.00 0.00 62 1016.9
20260507130030 18 146 12.9 27.4 0.00 0.00 0.00 62 1016.9
20260507125018 18 159 12.9 25.7 0.00 0.00 0.00 62 1017.0
20260507124023 18 156 12.9 30.6 0.00 0.00 0.00 61 1017.0
20260507123028 18 161 14.5 30.6 0.00 0.00 0.00 60 1017.1
20260507122017 18 161 14.5 27.4 0.00 0.00 0.00 61 1017.3
20260507121021 18 143 16.1 29.0 0.00 0.00 0.00 63 1017.4
20260507120026 18 162 16.1 30.6 0.00 0.00 0.00 62 1017.3
20260507115033 18 154 16.1 30.6 0.00 0.00 0.00 62 1017.4
20260507114021 18 149 17.7 29.0 0.00 0.00 0.00 62 1017.4
20260507113024 18 149 14.5 27.4 0.00 0.00 0.00 63 1017.4
20260507112029 18 143 16.1 33.8 0.00 0.00 0.00 62 1017.3
20260507111017 18 142 14.5 29.0 0.00 0.00 0.00 61 1017.3
20260507110022 18 164 16.1 25.7 0.00 0.00 0.00 60 1017.2
20260507105027 18 143 14.5 27.4 0.00 0.00 0.00 60 1017.3
20260507104033 18 162 14.5 30.6 0.00 0.00 0.00 59 1017.3
20260507103020 18 164 16.1 29.0 0.00 0.00 0.00 60 1017.4
20260507102025 18 151 16.1 29.0 0.00 0.00 0.00 61 1017.6
20260507101030 18 154 14.5 30.6 0.00 0.00 0.00 61 1017.3
20260507100018 18 156 12.9 29.0 0.00 0.00 0.00 60 1017.3
20260507095024 17 166 14.5 27.4 0.00 0.00 0.00 62 1017.4
20260507094028 18 170 14.5 29.0 0.00 0.00 0.00 60 1017.4
20260507093033 18 142 16.1 35.4 0.00 0.00 0.00 61 1017.3
20260507092021 18 163 14.5 24.1 0.00 0.00 0.00 60 1017.3
20260507091028 18 164 16.1 27.4 0.00 0.00 0.00 60 1017.3
20260507090032 18 151 16.1 27.4 0.00 0.00 0.00 61 1017.4
20260507085019 17 153 12.9 20.9 0.00 0.00 0.00 63 1017.4
20260507084024 17 137 14.5 27.4 0.00 0.00 0.00 62 1017.4
20260507083029 17 167 11.3 24.1 0.00 0.00 0.00 62 1017.3
20260507082016 17 166 11.3 25.7 0.00 0.00 0.00 62 1017.3
20260507081022 17 151 12.9 24.1 0.00 0.00 0.00 61 1017.3
20260507080026 17 164 12.9 27.4 0.00 0.00 0.00 61 1017.1
20260507075031 17 147 14.5 25.7 0.00 0.00 0.00 63 1017.3
20260507074019 16 157 14.5 25.7 0.00 0.00 0.00 62 1017.4
20260507073024 16 162 12.9 25.7 0.00 0.00 0.00 63 1017.4
20260507072029 16 167 14.5 25.7 0.00 0.00 0.00 65 1017.3
20260507071017 16 157 14.5 25.7 0.00 0.00 0.00 65 1017.5
20260507070022 16 136 16.1 29.0 0.00 0.00 0.00 68 1017.4
20260507065027 15 168 14.5 33.8 0.00 0.00 0.00 69 1017.6
20260507064024 15 159 12.9 22.5 0.00 0.00 0.00 69 1017.6
20260507063027 15 136 12.9 22.5 0.00 0.00 0.00 69 1017.6
20260507062032 15 155 12.9 24.1 0.00 0.00 0.00 70 1017.7
20260507061020 15 181 11.3 20.9 0.00 0.00 0.00 72 1017.6
20260507060025 15 146 14.5 27.4 0.00 0.00 0.00 73 1017.5
20260507055030 15 159 14.5 25.7 0.00 0.00 0.00 74 1017.4
20260507054018 14 158 11.3 27.4 0.00 0.00 0.00 76 1017.3
20260507053023 14 156 11.3 22.5 0.00 0.00 0.00 77 1017.3
20260507052028 13 156 11.3 22.5 0.00 0.00 0.00 80 1017.1
20260507051016 12 168 12.9 25.7 0.00 0.00 0.00 82 1017.2
20260507050021 12 161 14.5 22.5 0.00 0.00 0.00 83 1017.1
20260507045026 12 155 11.3 22.5 0.00 0.00 0.00 86 1017.0
20260507044031 11 153 14.5 29.0 0.00 0.00 0.00 88 1016.9
20260507043019 10 149 12.9 27.4 0.00 0.00 0.00 91 1016.9
20260507042024 10 157 12.9 24.1 0.00 0.00 0.00 92 1016.7
20260507041029 10 154 12.9 29.0 0.00 0.00 0.00 93 1016.7
20260507040017 10 158 12.9 29.0 0.00 0.00 0.00 93 1016.6
20260507035022 9 165 14.5 29.0 0.00 0.00 0.00 93 1016.7
20260507034027 9 156 14.5 24.1 0.00 0.00 0.00 94 1016.5
20260507033032 9 159 12.9 24.1 0.00 0.00 0.00 94 1016.6
20260507032020 8 160 14.5 25.7 0.00 0.00 0.00 94 1016.5
20260507031025 8 152 11.3 20.9 0.00 0.00 0.00 94 1016.4
20260507030029 8 154 9.7 16.1 0.00 0.00 0.00 94 1016.3
20260507025017 8 151 9.7 17.7 0.00 0.00 0.00 94 1016.1
20260507024023 8 166 9.7 16.1 0.00 0.00 0.00 94 1016.3
20260507023027 8 159 9.7 17.7 0.00 0.00 0.00 94 1016.2
20260507022032 8 152 8.0 16.1 0.00 0.00 0.00 94 1016.2
20260507021020 8 157 8.0 14.5 0.00 0.00 0.00 94 1016.2
20260507020025 8 154 9.7 16.1 0.00 0.00 0.00 93 1016.2
20260507015110 8 149 8.0 14.5 0.00 0.00 0.00 93 1016.1
20260506234027 8 155 8.0 12.9 0.00 0.00 0.00 92 1016.3
20260506233032 8 155 8.0 17.7 0.00 0.00 0.00 92 1016.2
20260506232020 8 160 9.7 16.1 0.00 0.00 0.00 91 1016.2
20260506231025 8 167 9.7 20.9 0.00 0.00 0.00 91 1016.2
20260506230030 8 154 9.7 16.1 0.00 0.00 0.00 91 1016.4
20260506225018 9 161 9.7 17.7 0.00 0.00 0.00 91 1016.4
20260506224023 9 158 8.0 16.1 0.00 0.00 0.00 91 1016.5
20260506223028 9 160 9.7 16.1 0.00 0.00 0.00 91 1016.4
20260506222016 9 160 9.7 22.5 0.00 0.00 0.00 91 1016.4
20260506221021 9 159 9.7 17.7 0.00 0.00 0.00 91 1016.5
20260506220026 9 155 9.7 22.5 0.00 0.00 0.00 91 1016.5
20260506215031 9 148 9.7 17.7 0.00 0.00 0.00 90 1016.6
20260506214018 9 146 8.0 14.5 0.00 0.00 0.00 90 1016.6
20260506213023 9 159 9.7 20.9 0.00 0.00 0.00 90 1016.6
20260506212028 9 165 8.0 17.7 0.00 0.00 0.00 90 1016.5
20260506211016 9 173 8.0 20.9 0.00 0.00 0.00 89 1016.4
20260506210021 9 172 4.8 12.9 0.00 0.00 0.00 90 1016.5
20260506205026 8 162 8.0 16.1 0.00 0.00 0.00 90 1016.4
20260506204031 8 158 9.7 17.7 0.00 0.00 0.00 89 1016.5
20260506203021 9 158 8.0 16.1 0.00 0.00 0.00 87 1016.5
20260506202024 9 170 6.4 11.3 0.00 0.00 0.00 86 1016.6
20260506201029 9 173 4.8 11.3 0.00 0.00 0.00 85 1016.4
20260506200017 9 174 6.4 11.3 0.00 0.00 0.00 84 1016.5
20260506195022 9 177 6.4 11.3 0.00 0.00 0.00 83 1016.6
20260506194027 10 182 4.8 11.3 0.00 0.00 0.00 84 1016.4
20260506193032 10 180 6.4 11.3 0.00 0.00 0.00 84 1016.4
20260506192020 10 165 6.4 12.9 0.00 0.00 0.00 83 1016.4
20260506191025 10 151 8.0 11.3 0.00 0.00 0.00 82 1016.2
20260506190030 10 144 6.4 11.3 0.00 0.00 0.00 79 1016.3
20260506185138 10 168 4.8 9.7 0.00 0.00 0.00 78 1016.3
20260506173104 13 148 4.8 9.7 0.00 0.00 0.00 69 1015.7
20260506165047 15 157 6.4 16.1 0.00 0.00 0.00 65 1015.6
20260506160018 17 135 8.0 14.5 0.00 0.00 0.00 53 1015.5
20260506155022 17 138 8.0 16.1 0.00 0.00 0.00 52 1015.6